Printer-friendly version

IAU Minor Planet Center

Minor Planet Center

MPEC 2005-Q44 : 2005 QO11

The following Minor Planet Electronic Circular may be linked-to from your own Web pages, but must not otherwise be redistributed electronically.


Read MPEC 2005-Q43 Read MPEC 2005-Q45


M.P.E.C. 2005-Q44                                Issued 2005 Aug. 29, 14:34 UT

     The Minor Planet Electronic Circulars contain information on unusual
         minor planets and routine data on comets.  They are published
   on behalf of Commission 20 of the International Astronomical Union by the
          Minor Planet Center, Smithsonian Astrophysical Observatory,
                          Cambridge, MA 02138, U.S.A.

                  Supported in part by the Brinson Foundation
             Prepared using the Tamkin Foundation Computer Network

                              MPC@CFA.HARVARD.EDU
          URL http://cfa-www.harvard.edu/iau/mpc.html  ISSN 1523-6714

                                   2005 QO11

Observations:
     K05Q11O* C2005 08 28.15347 22 37 38.60 +10 10 08.0          18.3 R EQ044699
     K05Q11O  C2005 08 28.17624 22 37 37.99 +10 08 13.9                 EQ044699
     K05Q11O  C2005 08 28.19913 22 37 37.24 +10 06 19.0                 EQ044699
     K05Q11O  C2005 08 28.22501 22 37 36.53 +10 04 10.8                 EQ044699
     K05Q11O  C2005 08 28.33768 22 37 32.93 +09 54 46.4          18.6 R EQ044699
     K05Q11O  C2005 08 28.34146 22 37 32.87 +09 54 26.3                 EQ044699
     K05Q11O  C2005 08 28.34525 22 37 32.72 +09 54 08.4                 EQ044699
     K05Q11O  C2005 08 28.34889 22 37 32.68 +09 53 49.1                 EQ044699
     K05Q11O  C2005 08 28.82082 22 37 21.76 +09 13 42.7          18.6 V EQ044198
     K05Q11O  C2005 08 28.82308 22 37 21.69 +09 13 31.1          18.6 V EQ044198
     K05Q11O  C2005 08 28.82459 22 37 21.64 +09 13 23.4          18.6 V EQ044198
     K05Q11O  C2005 08 28.82647 22 37 21.58 +09 13 13.7          18.6 V EQ044198
     K05Q11O  C2005 08 28.82836 22 37 21.52 +09 13 04.1          18.6 V EQ044198
     K05Q11O  C2005 08 28.83111 22 37 21.43 +09 12 50.3          18.7 V EQ044151
     K05Q11O  C2005 08 28.83321 22 37 21.35 +09 12 40.0          18.6 V EQ044151
     K05Q11O  C2005 08 28.83410 22 37 21.31 +09 12 35.5          18.7 V EQ044151
     K05Q11O  C2005 08 28.83708 22 37 21.30 +09 12 19.1          18.7 V EQ044151
     K05Q11O  C2005 08 28.86882 22 37 20.29 +09 09 35.5          18.8 V EQ044240
     K05Q11O  C2005 08 28.88864 22 37 19.72 +09 07 54.2          19.1 V EQ044240
     K05Q11O  C2005 08 28.89016 22 37 19.68 +09 07 46.4          19.0 V EQ044240
     K05Q11O  C2005 08 28.89169 22 37 19.65 +09 07 38.7          18.8 V EQ044240
     K05Q11O  C2005 08 28.89321 22 37 19.61 +09 07 30.7          18.8 V EQ044240
     K05Q11O  C2005 08 28.89474 22 37 19.57 +09 07 22.5          18.9 V EQ044240
     K05Q11O  C2005 08 28.92691 22 37 18.46 +09 04 36.5          18.2 R EQ044118
     K05Q11O  C2005 08 28.92807 22 37 18.39 +09 04 30.7          18.3 R EQ044118
     K05Q11O  C2005 08 28.93041 22 37 18.34 +09 04 18.7          18.5 R EQ044118
     K05Q11O  C2005 08 28.93272 22 37 18.27 +09 04 06.7          18.6 R EQ044118
     K05Q11O  C2005 08 28.93505 22 37 18.20 +09 03 54.3          18.2 R EQ044118
     K05Q11O  C2005 08 28.97843 22 37 17.19 +09 00 09.5          18.2 V EQ044J69
     K05Q11O  C2005 08 28.98053 22 37 17.13 +08 59 56.5          18.5 V EQ044J69
     K05Q11O  C2005 08 28.98264 22 37 17.05 +08 59 47.8          17.8 V EQ044J69
     K05Q11O  C2005 08 28.98476 22 37 16.93 +08 59 36.0          17.9 V EQ044J69
     K05Q11O  C2005 08 28.98990 22 37 16.77 +08 59 09.9          18.0 V EQ044J69
     K05Q11O  C2005 08 28.99225 22 37 16.72 +08 58 57.5          18.0 V EQ044J69
     K05Q11O  C2005 08 28.99458 22 37 16.63 +08 58 47.2          18.0 V EQ044J69
     K05Q11O  C2005 08 28.99902 22 37 16.41 +08 58 22.9          18.4 V EQ044J69
     K05Q11O  C2005 08 29.00135 22 37 16.34 +08 58 11.2          18.2 V EQ044J69
     K05Q11O  C2005 08 29.14562 22 37 12.47 +08 46 02.9          18.4 R EQ044I77
     K05Q11O  C2005 08 29.15554 22 37 12.11 +08 45 10.0          17.8 R EQ044I77
     K05Q11O  C2005 08 29.16245 22 37 11.98 +08 44 35.9          18.3 R EQ044I77
     K05Q11O 5C2005 08 29.22755 22 37 11.28 +08 38 35.9          18.5 R EQ044673
     K05Q11O 5C2005 08 29.23356 22 37 11.07 +08 38 04.3                 EQ044673
     K05Q11O 5C2005 08 29.23715 22 37 10.96 +08 37 45.5                 EQ044673
     K05Q11O 5C2005 08 29.24201 22 37 10.79 +08 37 20.5                 EQ044673
     K05Q11O  C2005 08 29.28868 22 37 09.14 +08 33 16.3          18.0 R EQ044651
     K05Q11O  C2005 08 29.28979 22 37 09.11 +08 33 10.5          18.1 R EQ044651
     K05Q11O  C2005 08 29.29090 22 37 09.07 +08 33 04.7          18.1 R EQ044651
     K05Q11O 2C2005 08 29.41268 22 37 05.03 +08 22 21.6          18.3 R EQ044H06
     K05Q11O 2C2005 08 29.41542 22 37 04.85 +08 22 08.4          18.0 R EQ044H06

Observer details:
118 Modra.  Observer L. Kornos.  0.6-m f/5.5 reflector + CCD.
151 Eschenberg Observatory, Winterthur.  Observer M. Griesser.  0.40-m f/5.9
    Hypergraph + CCD.
198 Wildberg.  Observer R. Apitzsch.  0.35-m f/4.2 reflector + CCD.
240 Herrenberg.  Observer H. Michels.  0.40-m f/5 reflector + CCD.
651 Grasslands Observatory, Tucson.  Observer J. E. McGaha.  0.62-m f/5.1
    Newtonian reflector + CCD.
673 Table Mountain Observatory, Wrightwood.  Observer J. Young.  0.6-m f/16
    Cassegrain + CCD.
699 Lowell Observatory-LONEOS.  Observer M. E. Van Ness.  0.59-m LONEOS
    Schmidt + CCD.
H06 New Mexico Skies Observatory.  Observer R. Hutsebaut.  0.25-m reflector
    + CCD.
I77 CEAMIG-REA Observatory, Belo Horizonte.  Observers C. Jacques, E. Pimentel.
    Measurer C. Jacques.  0.30-m f/3.0 Schmidt-Cassegrain + CCD.
J69 North Observatory, Clanfield.  Observer D. Briggs.  0.40-m f/4.57
    Newtonian reflector + CCD.

Orbital elements:
2005 QO11
Epoch 2005 Aug. 18.0 TT = JDT 2453600.5                 MPC
M 338.60898              (2000.0)            P               Q
n   0.25917375     Peri.  230.96583     +0.76131907     -0.61497130
a   2.4363632      Node   163.16801     +0.53263070     +0.77386315
e   0.5049625      Incl.   45.19082     -0.36972667     -0.15147975
P   3.80           H   18.8           G   0.15
From 48 observations 2005 Aug. 28-29.

Ephemeris:
2005 QO11                a,e,i = 2.44, 0.50, 45                  q = 1.2061
Date    TT    R. A. (2000) Decl.     Delta      r     Elong.  Phase     V
2005 08 28    22 37.69   +10 23.1    0.446    1.437   159.6    14.2    18.6
2005 09 07    22 32.92   -06 30.9    0.378    1.384   172.6     5.4    17.8
2005 09 17    22 28.15   -27 10.3    0.367    1.336   150.0    22.1    18.3
2005 09 27    22 25.93   -45 09.9    0.410    1.294   127.5    38.0    18.9
2005 10 07    22 29.33   -57 24.3    0.487    1.259   111.0    47.9    19.5
2005 10 17    22 41.44   -64 58.4    0.575    1.232    99.7    52.9    20.0
2005 10 27    23 04.07   -69 30.3    0.664    1.214    91.9    54.9    20.3
2005 11 06    23 37.25   -71 59.0    0.747    1.206    86.7    55.1    20.6
2005 11 16    00 18.49   -72 54.4    0.818    1.209    83.4    54.3    20.8
2005 11 26    01 02.86   -72 31.3    0.878    1.222    81.6    53.1    20.9
2005 12 06    01 45.62   -70 57.2    0.924    1.244    81.2    51.5    21.0
2005 12 16    02 24.12   -68 18.6    0.958    1.275    82.1    49.9    21.1
2005 12 26    02 57.78   -64 39.6    0.982    1.314    83.9    48.1    21.2
2006 01 05    03 27.35   -60 02.0    1.000    1.359    86.5    46.2    21.2
2006 01 15    03 53.90   -54 29.7    1.017    1.409    89.5    44.3    21.3
2006 01 25    04 18.29   -48 09.2    1.039    1.464    92.7    42.2    21.4
2006 02 04    04 41.27   -41 12.3    1.070    1.523    95.5    40.1    21.4
2006 02 14    05 03.31   -33 57.8    1.117    1.583    97.4    38.2    21.6
2006 02 24    05 24.68   -26 47.4    1.183    1.646    98.1    36.5    21.7
2006 03 06    05 45.61   -20 01.5    1.271    1.709    97.4    35.1    21.9

Timothy B. Spahr             (C) Copyright 2005 MPC           M.P.E.C. 2005-Q44

Read MPEC 2005-Q43 Read MPEC 2005-Q45


Our Web policy. Index to the CBAT/MPC/ICQ pages.


Valid HTML 4.01!